TITAN 3C TRANSTAGE DEB, 38702

Orbit data source: Space-Track

TITAN 3C TRANSTAGE DEB, 38702 is space debris in GEO originally from a launch on Thu, 26 Sep 1968 UTC launched from the Air Force Eastern Test Range (AFETR). Debris objects in space refer to the collection of defunct objects orbiting the Earth. Examples of debris include non-operational satellites, rocket bodies, and fragments generated from explosions, collisions, or faulty payload assembly.

Not visible in the next 10 days
Identifier
38702, 1968-081AC
Orbit
GEO
Country
Flag of USUS
Related business
Manufacturer
Unknown
Mission
Spacecraft
Bus & Motor
Unknown
Mass
Unknown
Launch date (UTC)
1968-09-26 (57 years ago)
Launch vehicle
Unknown
Launch site
Air Force Eastern Test Range (AFETR)
Object type
Payload
Rocket body
Debris
Shape & HBR
Unknown
Radar Cross Section
Small (<0.1 m²)

Expand to show TLE details & history
Last TLE update: 2 days ago

TLE from 2 days ago
0 TITAN 3C TRANSTAGE DEB
1 38702U 68081AC  25257.60740929 -.00000057  00000-0  00000-0 0  9994
2 38702   0.7118  16.2112 0219017  68.2492 278.0291  1.02223599 66906
Epoch: 2025-09-14T14:34Z
TLE epoch observation values (Epoch: 2025-09-14T14:34:40.162Z)
Latitude
-0.20525°
Longitude
147.5099°
Altitude
35,141.088 km
Speed
3.102 km/s
True Right ascension
00h 00m 00s
True Declination
0° 12' 18"
Sunlit
Object was in full shadow at epoch
Visualization orbit readout
Latitude
Unknown
Longitude
Unknown
Altitude
Unknown
Speed
Unknown
Apparent Right ascension
Unknown
Apparent Declination
Unknown
Sunlit
N/A
Visualization observer readout
Local Sidereal Time
12:25:19
Azimuth
Unknown
Elevation
Unknown
Doppler factor
Unknown
Orbital elements
Apogee altitude
36,160.95 km
Perigee altitude
34,337.529 km
Semi-major axis
41,627.376 km
Eccentricity
0.0219
Inclination
0.7118°
RAAN
16.2112°
Arg. of periapsis
68.2492°
True anomaly
275.5352°
Mean anomaly
278.0291°
Eccentric anomaly
276.78301°
Mean motion
0.25555 °/min
Orbital period
1,408.73 mins
BSTAR
0
Loading maneuver chart data...
Computing Atmospheric mass density...

Documentation

Showing up to 5 results
|